Change the Weather History Date:

Thursday, May 2, 2013

  Actual Average Record
Temperature  
Mean Temperature 43 °F -  
Max Temperature 55 °F 62 °F 80 °F (2006)
Min Temperature 32 °F 40 °F 28 °F (2002)
Degree Days  
Heating Degree Days 22    
Moisture  
Dew Point 19 °F    
Average Humidity 45    
Maximum Humidity 75    
Minimum Humidity 14    
Precipitation  
Precipitation 0.00 in - - ()
Sea Level Pressure  
Sea Level Pressure 30.54 in    
Wind  
Wind Speed 6 mph (North)    
Max Wind Speed 20 mph    
Max Gust Speed 28 mph    
Visibility 10 miles    
Events      
Averages and records for this station are not official NWS values.
T = Trace of Precipitation, MM = Missing Value Source: NWS Daily Summary

Daily Weather History Graph

Daily Weather History Graph

Search for Another Location

Airport or City:

Trip Planner

Search our weather history database for the weather conditions in past years. The results will help you decide how hot, cold, wet, or windy it might be!

Date:

Astronomy

May. 02, 2013 Rise Set
Actual Time 6:32 AM CDT 8:41 PM CDT
Civil Twilight 6:02 AM CDT 9:12 PM CDT
Nautical Twilight 5:24 AM CDT 9:50 PM CDT
Astronomical Twilight 4:42 AM CDT 10:32 PM CDT
Moon 2:30 AM CDT (5/2) 1:23 PM CDT (5/2)
Length of Visible Light 15h 10m
Length of Day
14h 08m
Waning Gibbous, 47% of the Moon is Illuminated
May 2
Waning Gibbous
May 9
New
May 17
First Quarter
May 24
Full
May 31
Last Quarter

Hourly Weather History & Observations

Time (CDT) Temp. Windchill Dew Point Humidity Pressure Visibility Wind Dir Wind Speed Gust Speed Precip Events Conditions
12:15 AM 37.4 °F 32.8 °F 24.3 °F 59% 30.55 in 10.0 mi North 5.8 mph - N/A   Scattered Clouds
12:35 AM 36.5 °F 31.8 °F 25.5 °F 64% 30.55 in 10.0 mi North 5.8 mph - N/A   Clear
12:55 AM 35.6 °F 30.7 °F 25.7 °F 67% 30.55 in 10.0 mi North 5.8 mph - N/A   Clear
1:15 AM 36.0 °F 31.1 °F 25.0 °F 64% 30.56 in 10.0 mi North 5.8 mph - N/A   Clear
1:35 AM 35.2 °F 30.3 °F 25.7 °F 68% 30.56 in 10.0 mi North 5.8 mph - N/A   Clear
1:55 AM 35.8 °F 31.9 °F 24.4 °F 63% 30.56 in 10.0 mi NNW 4.6 mph - N/A   Clear
2:15 AM 36.3 °F - 23.7 °F 60% 30.57 in 10.0 mi Calm Calm - N/A   Clear
2:35 AM 35.6 °F 31.7 °F 24.8 °F 65% 30.56 in 10.0 mi NW 4.6 mph - N/A   Clear
2:55 AM 35.6 °F 31.7 °F 24.3 °F 63% 30.56 in 10.0 mi NW 4.6 mph - N/A   Clear
3:15 AM 34.7 °F 30.6 °F 25.3 °F 69% 30.56 in 10.0 mi WNW 4.6 mph - N/A   Clear
3:35 AM 34.5 °F 29.4 °F 24.8 °F 68% 30.56 in 10.0 mi WNW 5.8 mph - N/A   Clear
3:55 AM 34.0 °F 29.8 °F 25.5 °F 71% 30.57 in 10.0 mi WNW 4.6 mph - N/A   Clear
4:15 AM 33.3 °F 27.9 °F 25.7 °F 74% 30.57 in 10.0 mi WNW 5.8 mph - N/A   Clear
4:35 AM 33.1 °F 28.7 °F 25.7 °F 74% 30.59 in 10.0 mi West 4.6 mph - N/A   Clear
4:55 AM 33.4 °F 29.1 °F 25.2 °F 72% 30.59 in 10.0 mi WNW 4.6 mph - N/A   Clear
5:15 AM 33.4 °F 30.4 °F 25.0 °F 71% 30.59 in 10.0 mi WNW 3.5 mph - N/A   Clear
5:35 AM 33.3 °F 30.2 °F 25.2 °F 72% 30.60 in 10.0 mi WNW 3.5 mph - N/A   Clear
5:55 AM 33.1 °F 28.7 °F 25.3 °F 73% 30.60 in 10.0 mi WNW 4.6 mph - N/A   Clear
6:15 AM 32.7 °F - 25.5 °F 75% 30.62 in 10.0 mi Calm Calm - N/A   Clear
6:35 AM 32.9 °F - 24.8 °F 72% 30.63 in 10.0 mi Calm Calm - N/A   Clear
6:55 AM 32.4 °F 29.1 °F 24.8 °F 74% 30.63 in 10.0 mi NW 3.5 mph - N/A   Clear
7:15 AM 32.4 °F 29.1 °F 24.4 °F 73% 30.63 in 10.0 mi NNW 3.5 mph - N/A   Clear
7:35 AM 32.4 °F 27.9 °F 24.4 °F 73% 30.63 in 10.0 mi NNW 4.6 mph - N/A   Clear
7:55 AM 32.9 °F 28.5 °F 24.4 °F 71% 30.64 in 10.0 mi NW 4.6 mph - N/A   Clear
8:15 AM 34.3 °F 30.2 °F 25.2 °F 69% 30.65 in 10.0 mi NW 4.6 mph - N/A   Clear
8:35 AM 35.8 °F - 24.8 °F 64% 30.66 in 10.0 mi Calm Calm - N/A   Clear
8:55 AM 38.1 °F - 25.3 °F 60% 30.66 in 10.0 mi Calm Calm - N/A   Clear
9:15 AM 39.4 °F 37.2 °F 25.7 °F 58% 30.66 in 10.0 mi NNE 3.5 mph - N/A   Clear
9:35 AM 40.8 °F - 23.9 °F 51% 30.65 in 10.0 mi Calm Calm - N/A   Clear
9:55 AM 41.9 °F - 22.6 °F 46% 30.64 in 10.0 mi Calm Calm - N/A   Clear
10:15 AM 43.0 °F 39.5 °F 23.5 °F 46% 30.64 in 10.0 mi North 5.8 mph - N/A   Clear
10:35 AM 44.6 °F 40.2 °F 21.2 °F 39% 30.63 in 10.0 mi NNW 8.1 mph - N/A   Clear
10:55 AM 45.3 °F 41.1 °F 19.9 °F 36% 30.63 in 10.0 mi North 8.1 mph 16.1 mph N/A   Clear
11:15 AM 46.6 °F - 17.4 °F 31% 30.62 in 10.0 mi North 11.5 mph 16.1 mph N/A   Clear
11:35 AM 46.8 °F - 16.7 °F 30% 30.62 in 10.0 mi North 12.7 mph 16.1 mph N/A   Clear
11:55 AM 48.6 °F - 18.3 °F 30% 30.61 in 10.0 mi North 15.0 mph 18.4 mph N/A   Clear
12:15 PM 48.0 °F - 18.7 °F 31% 30.61 in 10.0 mi North 11.5 mph - N/A   Clear
12:35 PM 48.6 °F - 16.5 °F 28% 30.60 in 10.0 mi North 6.9 mph - N/A   Clear
12:55 PM 50.2 °F - 11.7 °F 21% 30.59 in 10.0 mi North 15.0 mph 20.7 mph N/A   Scattered Clouds
1:15 PM 51.1 °F - 11.3 °F 20% 30.57 in 10.0 mi North 11.5 mph 19.6 mph N/A   Scattered Clouds
1:35 PM 51.8 °F - 11.8 °F 20% 30.56 in 10.0 mi NNW 17.3 mph 23.0 mph N/A   Scattered Clouds
1:55 PM 51.8 °F - 10.4 °F 19% 30.55 in 10.0 mi North 9.2 mph 27.6 mph N/A   Scattered Clouds
2:15 PM 52.3 °F - 9.3 °F 18% 30.54 in 10.0 mi NW 9.2 mph 23.0 mph N/A   Scattered Clouds
2:35 PM 52.2 °F - 9.0 °F 18% 30.54 in 10.0 mi NNW 11.5 mph - N/A   Scattered Clouds
2:55 PM 52.9 °F - 8.8 °F 17% 30.53 in 10.0 mi North 19.6 mph 25.3 mph N/A   Mostly Cloudy
3:15 PM 52.0 °F - 7.7 °F 17% 30.52 in 10.0 mi North 11.5 mph 17.3 mph N/A   Mostly Cloudy
3:35 PM 54.7 °F - 7.5 °F 15% 30.51 in 10.0 mi NW 4.6 mph 21.9 mph N/A   Scattered Clouds
3:55 PM 52.9 °F - 7.5 °F 16% 30.50 in 10.0 mi NNE 9.2 mph 21.9 mph N/A   Scattered Clouds
4:15 PM 53.6 °F - 9.3 °F 17% 30.50 in 10.0 mi North 15.0 mph 19.6 mph N/A   Mostly Cloudy
4:35 PM 52.9 °F - 8.2 °F 17% 30.49 in 10.0 mi NNE 10.4 mph - N/A   Mostly Cloudy
4:55 PM 53.4 °F - 9.1 °F 17% 30.48 in 10.0 mi NE 12.7 mph 18.4 mph N/A   Overcast
5:15 PM 54.9 °F - 6.4 °F 14% 30.47 in 10.0 mi North 6.9 mph 20.7 mph N/A   Overcast
5:35 PM 54.9 °F - 5.5 °F 14% 30.46 in 10.0 mi North 15.0 mph 19.6 mph N/A   Overcast
5:55 PM 53.2 °F - 7.9 °F 16% 30.46 in 10.0 mi NNE 13.8 mph - N/A   Mostly Cloudy
6:15 PM 54.9 °F - 7.5 °F 15% 30.45 in 10.0 mi North 6.9 mph - N/A   Mostly Cloudy
6:55 PM 51.3 °F - 8.2 °F 18% 30.45 in 10.0 mi North 10.4 mph - N/A   Scattered Clouds
7:15 PM 53.6 °F - 7.3 °F 16% 30.44 in 10.0 mi NNE 6.9 mph 12.7 mph N/A   Clear
7:35 PM 52.0 °F - 12.9 °F 21% 30.44 in 10.0 mi ENE 8.1 mph - N/A   Scattered Clouds
7:55 PM 48.9 °F - 14.7 °F 26% 30.44 in 10.0 mi ENE 3.5 mph - N/A   Scattered Clouds
8:15 PM 46.9 °F - 19.8 °F 34% 30.44 in 10.0 mi North 3.5 mph - N/A   Clear
8:35 PM 45.5 °F 43.2 °F 19.4 °F 35% 30.44 in 10.0 mi ENE 4.6 mph - N/A   Clear
8:55 PM 43.9 °F 40.5 °F 19.9 °F 38% 30.44 in 10.0 mi ESE 5.8 mph - N/A   Clear
9:15 PM 43.3 °F 40.7 °F 20.8 °F 41% 30.44 in 10.0 mi ESE 4.6 mph - N/A   Clear
9:35 PM 41.7 °F 38.8 °F 21.9 °F 45% 30.43 in 10.0 mi SE 4.6 mph - N/A   Clear
9:55 PM 41.2 °F 39.2 °F 21.0 °F 45% 30.44 in 10.0 mi SSE 3.5 mph - N/A   Clear
10:15 PM 39.0 °F 35.7 °F 21.7 °F 50% 30.43 in 10.0 mi SE 4.6 mph - N/A   Clear
10:35 PM 39.7 °F 37.6 °F 20.5 °F 46% 30.43 in 10.0 mi SSE 3.5 mph - N/A   Clear
10:55 PM 37.9 °F - 22.5 °F 54% 30.43 in 10.0 mi Calm Calm - N/A   Clear
11:15 PM 36.5 °F 32.7 °F 21.2 °F 54% 30.43 in 10.0 mi East 4.6 mph - N/A   Clear
11:35 PM 35.2 °F - 22.6 °F 60% 30.43 in 10.0 mi Calm Calm - N/A   Clear
11:55 PM 36.0 °F 33.3 °F 22.1 °F 57% 30.42 in 10.0 mi East 3.5 mph - N/A   Clear